[[{"header":{"parameterUnit":"m.s-1","parameterCategory":1,"la1":30.2991,"la2":30.254,"lo1":-89.0895,"lo2":-89.0444,"dy":0.0017,"dx":0.0017,"nx":28,"ny":28,"refTime":"2024-07-07T03:00:00:Z","depth":0,"parameterNumber":2,"parameterNumberName":"U-component_of_WINDS"},"data":[0,0,0,0,0,0,0,0,0,0,0,0,0,0,0,0,0,0,0,0,0,0,0,0,0,0,0,0,0,0,0,0,0,0,0,0,0,0,0,0,0,0,0,0,0,0,0,0,0,0,0,0,0,0,0,0,0,0,1.1048,1.1049,0,1.115,1.1151,1.1153,1.1185,1.1185,1.1184,1.1184,1.1289,1.1292,1.1296,0,0,0,0,0,0,0,0,0,0,0,0,0,1.0881,1.0883,1.1048,1.1049,1.105,1.115,1.1152,1.1153,1.1185,1.1185,1.1184,1.1184,1.1288,1.1292,1.1296,0,0,0,0,0,0,0,0,0,0,0,0,0,1.0965,1.0884,1.1048,1.1079,1.1082,1.115,1.1152,1.1153,1.1186,1.1185,1.1184,1.1183,1.1287,1.1292,1.1296,1.1341,0,0,1.1311,1.1313,0,0,0,0,0,0,0,0,1.096,1.0971,1.1073,1.1077,1.1081,1.1154,1.1131,1.1216,1.1186,1.1146,1.1184,1.1183,1.1245,1.1253,1.1274,1.1346,1.135,1.1312,1.1315,1.1317,1.1318,0,0,0,0,0,0,0,1.0954,1.0967,1.1088,1.1074,1.1079,1.1087,1.1099,1.1147,1.1198,1.115,1.1152,1.1164,1.1247,1.1269,1.1277,1.1352,1.1312,1.1316,1.1319,1.1321,1.1464,1.1465,0,0,0,0,0,0,1.0943,1.0962,1.1085,1.1091,1.1018,1.1091,1.1104,1.1132,1.1198,1.1207,1.1165,1.1165,1.1261,1.1271,1.1281,1.1336,1.1317,1.1321,1.1324,1.1463,1.1464,1.1465,0,0,0,0,0,0,1.0939,1.0954,1.1081,1.1027,1.1044,1.1095,1.1126,1.1134,1.1156,1.1209,1.1218,1.1178,1.1261,1.1274,1.1325,1.134,1.1324,1.1328,1.1462,1.1463,1.1464,1.1447,0,0,0,0,0,0,1.0935,1.0952,1.097,1.1028,1.1047,1.1124,1.1127,1.1136,1.1164,1.1166,1.1224,1.1233,1.1262,1.1318,1.133,1.1346,1.1332,1.1461,1.1462,1.1464,1.1446,1.1448,1.1449,0,0,0,0,0,1.0928,1.0961,1.097,1.0985,1.107,1.1125,1.1136,1.1168,1.1165,1.1183,1.1217,1.1231,1.1337,1.1323,1.1337,1.1355,1.146,1.1462,1.1464,1.1446,1.1447,1.1449,0,0,0,0,0,0,1.0904,1.0969,1.098,1.1033,1.1073,1.113,1.1153,1.1168,1.121,1.121,1.1249,1.1261,1.131,1.1338,1.1321,1.1401,1.1399,1.1404,1.138,1.1382,1.1383,1.1375,1.1336,0,0,0,0,0,1.0904,1.0943,1.0999,1.1039,1.1059,1.1103,1.1128,1.1149,1.1192,1.1209,1.1247,1.1289,1.1331,1.1359,1.1401,1.1451,1.1464,1.147,1.1471,1.1472,1.1475,1.1503,1.1507,1.1471,1.1471,1.1471,0,0,1.0906,1.0947,1.0969,1.1035,1.1069,1.1108,1.1117,1.1158,1.1188,1.1216,1.1266,1.1296,1.1345,1.1395,1.142,1.142,1.1488,1.1474,1.1474,1.1478,1.1506,1.1509,1.1512,1.1473,1.1472,1.1472,0,0,1.0929,1.0964,1.1001,1.1035,1.1085,1.1114,1.1123,1.1178,1.1198,1.125,1.1271,1.1307,1.138,1.1414,1.144,1.1475,1.149,1.1488,1.1493,1.152,1.1523,1.1525,1.1537,1.1541,1.1492,1.1492,1.1492,0,1.0924,1.0985,1.1019,1.1059,1.1087,1.1114,1.1152,1.1183,1.1245,1.1264,1.1263,1.1354,1.1389,1.1448,1.1456,1.1478,1.1489,1.1481,1.152,1.1523,1.1526,1.1537,1.1542,1.1491,1.1491,1.1491,1.1491,0,1.0976,1.1018,1.1042,1.11,1.1132,1.1171,1.121,1.1238,1.1256,1.1285,1.1336,1.1379,1.143,1.1446,1.1465,1.1507,1.1506,1.1512,1.1511,1.1528,1.1539,1.1544,1.149,1.149,1.1491,1.1491,0,0,1.0986,1.1063,1.1071,1.1097,1.1155,1.1188,1.1228,1.1277,1.13,1.1342,1.1376,1.1437,1.1443,1.1473,1.1496,1.1519,1.1543,1.1523,1.1524,1.1524,1.1592,1.1586,1.1591,1.1553,1.1554,1.1555,1.1587,0,1.1016,1.1088,1.1119,1.1177,1.1216,1.1242,1.1277,1.1316,1.1344,1.138,1.1411,1.1453,1.1459,1.1477,1.1501,1.1535,1.1557,1.1533,1.1585,1.1587,1.1571,1.1597,1.1591,1.1619,1.1592,1.1593,1.1594,0,1.106,1.1101,1.1163,1.1215,1.1233,1.1263,1.1311,1.1346,1.1391,1.1409,1.1443,1.1464,1.1507,1.1503,1.1563,1.1546,1.1569,1.1589,1.159,1.1596,1.159,1.1602,1.1629,1.1633,1.1601,1.1601,1.16,0,1.106,1.1131,1.1177,1.1199,1.1262,1.1282,1.131,1.1354,1.1381,1.1423,1.1441,1.1487,1.1512,1.1548,1.1581,1.1576,1.1637,1.1636,1.1653,1.1652,1.1665,1.1663,1.1695,1.1681,1.1681,1.1681,1.168,0,1.1089,1.1125,1.1177,1.1205,1.1247,1.1283,1.1323,1.1352,1.1391,1.1425,1.1451,1.1482,1.1525,1.1562,1.1588,1.1633,1.1644,1.166,1.1667,1.1658,1.1655,1.1673,1.1671,1.1682,1.1682,1.1681,1.1681,0,1.1095,1.1132,1.1183,1.1238,1.1253,1.1281,1.1328,1.1356,1.1385,1.1428,1.144,1.1486,1.1531,1.1568,1.1627,1.1645,1.1691,1.1699,1.1675,1.1678,1.1693,1.1691,1.1736,1.1744,1.1725,1.1725,1.1725,0,1.1111,1.114,1.1198,1.1222,1.1249,1.1288,1.1316,1.1352,1.138,1.1433,1.1455,1.1502,1.1541,1.1611,1.1649,1.1694,1.1703,1.1716,1.171,1.17,1.1702,1.17,1.1703,1.1716,1.1716,1.1716,1.1716,0,1.1135,1.1151,1.1191,1.1236,1.1269,1.1306,1.1345,1.1363,1.1407,1.1437,1.1483,1.1513,1.1573,1.1619,1.1668,1.1696,1.1713,1.1718,1.1724,1.1715,1.1699,1.1707,1.1676,1.1717,1.1717,1.1717,1.1717,1.1717,1.1146,1.1172,1.1217,1.126,1.1292,1.1327,1.1356,1.1389,1.1427,1.1479,1.1498,1.1545,1.1589,1.1656,1.1684,1.1722,1.1724,1.1733,1.1735,1.1736,1.1735,1.1694,1.1731,1.1731,1.1731,1.1731,1.1731,0,1.117,1.12,1.1239,1.1292,1.1325,1.1339,1.1382,1.1409,1.1449,1.1489,1.1527,1.1579,1.1623,1.1665,1.1712,1.1733,1.1742,1.1744,1.1743,1.1749,1.1731,1.172,1.1736,1.1736,1.1736,1.1736,1.1736,1.1736,1.1187,1.1232,1.1253,1.1315,1.1344,1.139,1.1413,1.1446,1.1477,1.1534,1.1571,1.1598,1.1639,1.1688,1.1729,1.1741,1.1756,1.1756,1.1769,1.1751,1.175,1.1749,1.1739,1.1759,1.1759,1.1784,1.1784,1.1784]},{"header":{"parameterUnit":"m.s-1","parameterCategory":1,"la1":30.2991,"la2":30.254,"lo1":-89.0895,"lo2":-89.0444,"dy":0.0017,"dx":0.0017,"nx":28,"ny":28,"refTime":"2024-07-07T03:00:00:Z","depth":0,"parameterNumber":3,"parameterNumberName":"V-component_of_WINDS"},"data":[0,0,0,0,0,0,0,0,0,0,0,0,0,0,0,0,0,0,0,0,0,0,0,0,0,0,0,0,0,0,0,0,0,0,0,0,0,0,0,0,0,0,0,0,0,0,0,0,0,0,0,0,0,0,0,0,0,0,1.3703,1.3703,0,1.3693,1.3693,1.3693,1.3651,1.365,1.3649,1.3648,1.3638,1.3639,1.3639,0,0,0,0,0,0,0,0,0,0,0,0,0,1.3684,1.3685,1.3703,1.3703,1.3703,1.3693,1.3693,1.3693,1.3651,1.3649,1.3648,1.3647,1.3638,1.3638,1.3639,0,0,0,0,0,0,0,0,0,0,0,0,0,1.3685,1.3685,1.3703,1.368,1.3678,1.3693,1.3693,1.3693,1.3651,1.3649,1.3648,1.3647,1.3637,1.3638,1.3639,1.3676,0,0,1.3642,1.3643,0,0,0,0,0,0,0,0,1.3685,1.3686,1.3684,1.3682,1.368,1.3672,1.3683,1.3687,1.3651,1.3661,1.3648,1.3646,1.365,1.365,1.3652,1.3675,1.3675,1.3643,1.3643,1.3644,1.3644,0,0,0,0,0,0,0,1.3685,1.3686,1.3699,1.3684,1.3681,1.3671,1.3669,1.3684,1.3664,1.366,1.3657,1.3657,1.3649,1.3651,1.3651,1.3675,1.3643,1.3643,1.3644,1.3644,1.3728,1.3729,0,0,0,0,0,0,1.3688,1.3686,1.3699,1.3699,1.3679,1.3672,1.3671,1.3676,1.3664,1.3661,1.3658,1.3655,1.365,1.365,1.3651,1.3693,1.3644,1.3645,1.3645,1.3726,1.3728,1.373,0,0,0,0,0,0,1.3688,1.369,1.37,1.3692,1.3692,1.3674,1.368,1.3676,1.3678,1.3662,1.3659,1.3664,1.3649,1.3649,1.367,1.3692,1.3645,1.3646,1.3724,1.3727,1.3729,1.3777,0,0,0,0,0,0,1.3688,1.369,1.3704,1.3692,1.3693,1.3719,1.3682,1.3677,1.368,1.3676,1.3667,1.3664,1.3648,1.3669,1.3671,1.3692,1.3647,1.3722,1.3725,1.3728,1.3773,1.3781,1.3787,0,0,0,0,0,1.3687,1.3718,1.3705,1.3706,1.3709,1.3721,1.3721,1.3702,1.3682,1.3696,1.3685,1.3664,1.3689,1.3671,1.3673,1.3695,1.3721,1.3724,1.3728,1.377,1.3779,1.3787,0,0,0,0,0,0,1.3732,1.3716,1.3701,1.3729,1.3726,1.3713,1.373,1.3712,1.3715,1.3711,1.3687,1.3685,1.371,1.3704,1.3685,1.373,1.3701,1.3705,1.3733,1.3741,1.3748,1.3749,1.3648,0,0,0,0,0,1.3745,1.3755,1.374,1.3766,1.3766,1.3748,1.3752,1.3738,1.3735,1.3733,1.3725,1.3722,1.3729,1.3735,1.374,1.3772,1.377,1.3788,1.3795,1.3801,1.3805,1.3822,1.383,1.3741,1.3741,1.3741,0,0,1.3772,1.3764,1.3772,1.3775,1.3772,1.3783,1.3748,1.3761,1.377,1.3735,1.3754,1.3748,1.3744,1.377,1.3781,1.3766,1.3829,1.3805,1.381,1.3811,1.3827,1.3835,1.3842,1.3744,1.3743,1.3743,0,0,1.3827,1.3822,1.3844,1.3841,1.3836,1.3824,1.3829,1.3819,1.3813,1.3832,1.3807,1.3816,1.3829,1.3827,1.3828,1.3883,1.3864,1.3885,1.3921,1.3938,1.3945,1.3951,1.3972,1.3979,1.3889,1.389,1.389,0,1.3862,1.3878,1.3857,1.3872,1.3874,1.3844,1.3865,1.3863,1.3861,1.3863,1.3846,1.3862,1.3857,1.3883,1.3896,1.3897,1.3903,1.3887,1.3946,1.3952,1.3957,1.3976,1.3984,1.3892,1.3892,1.3892,1.3891,0,1.3921,1.3932,1.395,1.3949,1.3952,1.3971,1.3952,1.3959,1.3944,1.3934,1.3954,1.3946,1.395,1.3955,1.3941,1.3979,1.397,1.395,1.3921,1.3969,1.3986,1.3993,1.3896,1.3895,1.3894,1.3894,0,0,1.4004,1.3991,1.3998,1.3997,1.3989,1.3998,1.4015,1.4019,1.4025,1.4024,1.4038,1.405,1.4031,1.4032,1.4017,1.4032,1.4077,1.401,1.4009,1.4023,1.4119,1.4135,1.4144,1.4063,1.4065,1.4066,1.412,0,1.4058,1.4086,1.4068,1.4099,1.411,1.4081,1.4096,1.4093,1.4084,1.4092,1.4081,1.409,1.4065,1.4065,1.4078,1.4068,1.4096,1.4064,1.4077,1.4077,1.408,1.4153,1.417,1.4222,1.4127,1.4128,1.4129,0,1.4124,1.4126,1.4159,1.415,1.4154,1.4167,1.417,1.4177,1.4173,1.4166,1.4167,1.4148,1.4165,1.4135,1.4157,1.4136,1.414,1.4136,1.4138,1.4139,1.4107,1.4157,1.4238,1.4246,1.4139,1.4138,1.4138,0,1.4183,1.4194,1.4215,1.4215,1.4205,1.4215,1.4211,1.4206,1.4209,1.4211,1.4214,1.4217,1.422,1.4223,1.4206,1.4186,1.4231,1.42,1.4226,1.4226,1.4237,1.4237,1.4321,1.4238,1.4238,1.4238,1.4238,0,1.4245,1.4266,1.4241,1.4255,1.4278,1.4256,1.428,1.4272,1.4268,1.4279,1.4254,1.4265,1.4242,1.4251,1.4237,1.4258,1.4259,1.4254,1.425,1.4257,1.4258,1.426,1.4256,1.424,1.424,1.4239,1.4239,0,1.4315,1.4299,1.432,1.4309,1.4306,1.4324,1.4314,1.4326,1.4315,1.4329,1.4332,1.4315,1.4324,1.4307,1.4314,1.4305,1.4335,1.4325,1.4336,1.4334,1.4361,1.4359,1.445,1.4461,1.437,1.4371,1.4372,0,1.4356,1.4372,1.4362,1.4368,1.4365,1.4375,1.4379,1.4358,1.4363,1.436,1.4372,1.4379,1.4384,1.44,1.4389,1.4394,1.4385,1.4416,1.4385,1.4392,1.4386,1.4386,1.4388,1.4423,1.4424,1.4425,1.4425,0,1.4431,1.4422,1.4429,1.4433,1.4438,1.444,1.444,1.4447,1.4425,1.4432,1.4441,1.4444,1.4452,1.4459,1.4462,1.4458,1.4439,1.4435,1.4441,1.4449,1.4455,1.4453,1.4355,1.4433,1.4432,1.4432,1.4431,1.4431,1.4488,1.4501,1.4497,1.4505,1.4503,1.4504,1.4514,1.4505,1.4512,1.4517,1.4504,1.4516,1.4512,1.4514,1.4512,1.4521,1.4508,1.4517,1.4519,1.4522,1.4527,1.4453,1.4522,1.4521,1.4521,1.4521,1.4521,0,1.4563,1.4558,1.4566,1.4568,1.4574,1.4555,1.4554,1.4561,1.4572,1.457,1.4575,1.4586,1.4594,1.4583,1.4588,1.4598,1.459,1.4601,1.46,1.46,1.4538,1.4533,1.4608,1.4608,1.4608,1.4608,1.4608,1.4608,1.4603,1.4624,1.4615,1.4635,1.463,1.4642,1.4644,1.4645,1.4643,1.4656,1.4662,1.4655,1.465,1.4655,1.4661,1.4657,1.4661,1.4676,1.4669,1.4613,1.4604,1.4596,1.4591,1.4676,1.4676,1.473,1.4731,1.4731]}]]